This is the latest recevied weather packets stored in our database for station/object AD8IZ-13. If no packets are shown the sender has not sent any weather packets the latest 10 day(s).
| Time | Temp. | Humidity | Pressure | Rain* | Wind** | Luminosity | Snow |
|---|---|---|---|---|---|---|---|
| 1778192718 | 15° C | 46% | 1012.7 hPa | 0 mm | - | 213 W/m² | - |
| 1778192118 | 15° C | 45% | 1012.6 hPa | 0 mm | - | 242 W/m² | - |
| 1778191518 | 14.44° C | 46% | 1012.7 hPa | 0 mm | - | 290 W/m² | - |
| 1778190919 | 14.44° C | 47% | 1012.5 hPa | 0 mm | - | 216 W/m² | - |
| 1778190320 | 14.44° C | 46% | 1012.4 hPa | 0 mm | - | 96 W/m² | - |
| 1778189719 | 15.56° C | 46% | 1012.3 hPa | 0 mm | - | 432 W/m² | - |
| 1778189119 | 15.56° C | 46% | 1012.2 hPa | 0 mm | - | 548 W/m² | - |
| 1778188521 | 15.56° C | 47% | 1012.2 hPa | 0 mm | - | 581 W/m² | - |
| 1778187920 | 15.56° C | 47% | 1012.2 hPa | 0 mm | - | 625 W/m² | - |
| 1778187320 | 15.56° C | 47% | 1012 hPa | 0 mm | - | 585 W/m² | - |
| 1778186720 | 15.56° C | 48% | 1012.1 hPa | 0 mm | - | 552 W/m² | - |
| 1778186122 | 15.56° C | 47% | 1011.9 hPa | 0 mm | - | 683 W/m² | - |
| 1778185520 | 15° C | 48% | 1012 hPa | 0 mm | - | 712 W/m² | - |
| 1778184918 | 15° C | 49% | 1012.2 hPa | 0 mm | - | 770 W/m² | - |
| 1778184318 | 15.56° C | 49% | 1012.1 hPa | 0 mm | - | 315 W/m² | - |
| 1778183721 | 15.56° C | 48% | 1012.1 hPa | 0 mm | - | 869 W/m² | - |
| 1778183122 | 15.56° C | 49% | 1012.2 hPa | 0 mm | - | 791 W/m² | - |
| 1778182518 | 15.56° C | 50% | 1012.3 hPa | 0 mm | - | 848 W/m² | - |
| 1778181919 | 15.56° C | 50% | 1012.2 hPa | 0 mm | - | 844 W/m² | - |
| 1778181319 | 15.56° C | 49% | 1012.4 hPa | 0 mm | - | 857 W/m² | - |
| 1778180719 | 15° C | 51% | 1012.4 hPa | 0 mm | - | 891 W/m² | - |
| 1778180122 | 15° C | 52% | 1012.4 hPa | 0 mm | - | 602 W/m² | - |
| 1778179519 | 15° C | 52% | 1012.4 hPa | 0 mm | - | 759 W/m² | - |
| 1778178919 | 15° C | 51% | 1012.5 hPa | 0 mm | - | 947 W/m² | - |
| 1778178320 | 15° C | 53% | 1012.5 hPa | 0 mm | - | 915 W/m² | - |
* Rain latest hour (hover to see other rain measurements)
** Current wind speed in m/s (hover to see current wind gust speed)